| time (UTC) | temp F | wind direction | speed MPH | gust MPH | rain 1hr in | rain 24hr in | rain mn in | humidity % | barometer mb |
| 20260503003603 | 64 | 100 | 3.0 | 3.0 | 0.00 | 0.00 | 0.00 | 38 | 1014.5 |
| 20260503003059 | 64 | 99 | 0.0 | 5.0 | 0.00 | 0.00 | 0.00 | 38 | 1014.5 |
| 20260503002556 | 64 | 103 | 3.0 | 3.0 | 0.00 | 0.00 | 0.00 | 38 | 1014.7 |
| 20260503002053 | 65 | 58 | 0.0 | 2.0 | 0.00 | 0.00 | 0.00 | 36 | 1014.7 |
| 20260503001549 | 64 | 96 | 1.0 | 2.0 | 0.00 | 0.00 | 0.00 | 37 | 1014.8 |
| 20260503001047 | 64 | 93 | 3.0 | 3.0 | 0.00 | 0.00 | 0.00 | 37 | 1014.7 |
| 20260503000544 | 64 | 27 | 3.0 | 3.0 | 0.00 | 0.00 | 0.00 | 38 | 1014.8 |
| 20260503000041 | 64 | 86 | 1.0 | 2.0 | 0.00 | 0.00 | 0.00 | 37 | 1014.8 |
| 20260502235537 | 65 | 88 | 2.0 | 5.0 | 0.00 | 0.00 | 0.00 | 36 | 1014.7 |
| 20260502235036 | 65 | 52 | 2.0 | 3.0 | 0.00 | 0.00 | 0.00 | 37 | 1015.0 |
| 20260502234531 | 65 | 83 | 4.0 | 6.0 | 0.00 | 0.00 | 0.00 | 36 | 1014.8 |
| 20260502234029 | 66 | 52 | 2.0 | 2.0 | 0.00 | 0.00 | 0.00 | 35 | 1014.8 |
| 20260502233524 | 67 | 97 | 1.0 | 2.0 | 0.00 | 0.00 | 0.00 | 35 | 1015.1 |
| 20260502233021 | 66 | 261 | 1.0 | 3.0 | 0.00 | 0.00 | 0.00 | 36 | 1015.1 |
| 20260502232517 | 67 | 159 | 0.0 | 1.0 | 0.00 | 0.00 | 0.00 | 34 | 1015.2 |
| 20260502232014 | 66 | 113 | 0.0 | 2.0 | 0.00 | 0.00 | 0.00 | 35 | 1015.1 |
| 20260502231511 | 65 | 115 | 0.0 | 2.0 | 0.00 | 0.00 | 0.00 | 36 | 1015.3 |
| 20260502231009 | 64 | 59 | 2.0 | 7.0 | 0.00 | 0.00 | 0.00 | 38 | 1015.2 |
| 20260502230508 | 65 | 86 | 2.0 | 6.0 | 0.00 | 0.00 | 0.00 | 36 | 1015.1 |
| 20260502230006 | 64 | 359 | 2.0 | 6.0 | 0.00 | 0.00 | 0.00 | 37 | 1015.4 |
| 20260502225501 | 64 | 359 | 2.0 | 3.0 | 0.00 | 0.00 | 0.00 | 38 | 1015.3 |
| 20260502224958 | 64 | 214 | 1.0 | 2.0 | 0.00 | 0.00 | 0.00 | 37 | 1015.6 |
| 20260502224454 | 64 | 317 | 3.0 | 3.0 | 0.00 | 0.00 | 0.00 | 38 | 1015.5 |
| 20260502223951 | 64 | 332 | 2.0 | 5.0 | 0.00 | 0.00 | 0.00 | 37 | 1015.8 |
| 20260502223449 | 65 | 358 | 7.0 | 8.0 | 0.00 | 0.00 | 0.00 | 36 | 1015.7 |
| 20260502222947 | 65 | 347 | 5.0 | 9.0 | 0.00 | 0.00 | 0.00 | 36 | 1015.7 |
| 20260502222444 | 65 | 7 | 3.0 | 6.0 | 0.00 | 0.00 | 0.00 | 36 | 1016.1 |
| 20260502221939 | 66 | 317 | 6.0 | 8.0 | 0.00 | 0.00 | 0.00 | 37 | 1016.1 |
| 20260502221436 | 66 | 2 | 7.0 | 10.0 | 0.00 | 0.00 | 0.00 | 38 | 1016.2 |
| 20260502220933 | 66 | 115 | 1.0 | 1.0 | 0.00 | 0.00 | 0.00 | 34 | 1016.1 |
| 20260502220429 | 63 | 107 | 0.0 | 2.0 | 0.00 | 0.00 | 0.00 | 37 | 1016.3 |
| 20260502215925 | 62 | 119 | 4.0 | 6.0 | 0.00 | 0.00 | 0.00 | 38 | 1016.4 |
| 20260502215423 | 62 | 105 | 4.0 | 5.0 | 0.00 | 0.00 | 0.00 | 38 | 1016.4 |
| 20260502214920 | 62 | 324 | 1.0 | 5.0 | 0.00 | 0.00 | 0.00 | 38 | 1016.5 |
| 20260502214416 | 63 | 294 | 6.0 | 8.0 | 0.00 | 0.00 | 0.00 | 39 | 1016.5 |
| 20260502213914 | 63 | 288 | 5.0 | 7.0 | 0.00 | 0.00 | 0.00 | 39 | 1016.5 |
| 20260502213410 | 62 | 29 | 1.0 | 5.0 | 0.00 | 0.00 | 0.00 | 38 | 1016.6 |
| 20260502212909 | 63 | 13 | 4.0 | 5.0 | 0.00 | 0.00 | 0.00 | 39 | 1016.7 |
| 20260502212408 | 63 | 1 | 6.0 | 8.0 | 0.00 | 0.00 | 0.00 | 37 | 1016.5 |
| 20260502211905 | 64 | 355 | 5.0 | 7.0 | 0.00 | 0.00 | 0.00 | 36 | 1016.7 |
| 20260502211400 | 66 | 97 | 4.0 | 6.0 | 0.00 | 0.00 | 0.00 | 34 | 1016.7 |
| 20260502210858 | 64 | 101 | 1.0 | 6.0 | 0.00 | 0.00 | 0.00 | 36 | 1016.9 |
| 20260502210354 | 65 | 95 | 3.0 | 7.0 | 0.00 | 0.00 | 0.00 | 35 | 1016.8 |
| 20260502205852 | 65 | 23 | 3.0 | 7.0 | 0.00 | 0.00 | 0.00 | 36 | 1016.9 |
| 20260502205347 | 67 | 7 | 3.0 | 3.0 | 0.00 | 0.00 | 0.00 | 33 | 1017.0 |
| 20260502204845 | 67 | 49 | 2.0 | 5.0 | 0.00 | 0.00 | 0.00 | 33 | 1017.2 |
| 20260502204342 | 66 | 83 | 3.0 | 7.0 | 0.00 | 0.00 | 0.00 | 35 | 1017.2 |
| 20260502203839 | 66 | 356 | 9.0 | 10.0 | 0.00 | 0.00 | 0.00 | 35 | 1016.9 |
| 20260502203337 | 65 | 334 | 2.0 | 3.0 | 0.00 | 0.00 | 0.00 | 36 | 1016.9 |
| 20260502202832 | 65 | 356 | 6.0 | 7.0 | 0.00 | 0.00 | 0.00 | 35 | 1017.4 |
| 20260502202330 | 64 | 0 | 4.0 | 9.0 | 0.00 | 0.00 | 0.00 | 38 | 1017.2 |
| 20260502201828 | 64 | 334 | 7.0 | 10.0 | 0.00 | 0.00 | 0.00 | 38 | 1017.3 |
| 20260502201323 | 62 | 18 | 2.0 | 7.0 | 0.00 | 0.00 | 0.00 | 38 | 1017.3 |
| 20260502200820 | 63 | 288 | 1.0 | 2.0 | 0.00 | 0.00 | 0.00 | 39 | 1017.5 |
| 20260502200316 | 64 | 309 | 4.0 | 6.0 | 0.00 | 0.00 | 0.00 | 37 | 1017.4 |
| 20260502195814 | 64 | 281 | 4.0 | 6.0 | 0.00 | 0.00 | 0.00 | 38 | 1017.6 |
| 20260502195310 | 62 | 103 | 0.0 | 1.0 | 0.00 | 0.00 | 0.00 | 37 | 1017.4 |
| 20260502194807 | 61 | 286 | 1.0 | 3.0 | 0.00 | 0.00 | 0.00 | 40 | 1017.8 |
| 20260502194304 | 61 | 343 | 6.0 | 7.0 | 0.00 | 0.00 | 0.00 | 39 | 1017.8 |
| 20260502193800 | 62 | 11 | 8.0 | 10.0 | 0.00 | 0.00 | 0.00 | 39 | 1017.8 |
| 20260502193257 | 63 | 79 | 2.0 | 2.0 | 0.00 | 0.00 | 0.00 | 38 | 1017.7 |
| 20260502192752 | 62 | 72 | 2.0 | 5.0 | 0.00 | 0.00 | 0.00 | 38 | 1017.8 |
| 20260502192249 | 61 | 276 | 3.0 | 6.0 | 0.00 | 0.00 | 0.00 | 40 | 1018.0 |
| 20260502191746 | 60 | 11 | 3.0 | 7.0 | 0.00 | 0.00 | 0.00 | 40 | 1018.0 |
| 20260502191244 | 61 | 306 | 8.0 | 10.0 | 0.00 | 0.00 | 0.00 | 42 | 1018.3 |
| 20260502190741 | 60 | 12 | 3.0 | 6.0 | 0.00 | 0.00 | 0.00 | 42 | 1018.0 |
| 20260502190239 | 60 | 350 | 5.0 | 7.0 | 0.00 | 0.00 | 0.00 | 42 | 1018.3 |
| 20260502185738 | 60 | 328 | 4.0 | 8.0 | 0.00 | 0.00 | 0.00 | 42 | 1018.4 |
| 20260502185235 | 60 | 4 | 6.0 | 7.0 | 0.00 | 0.00 | 0.00 | 43 | 1018.4 |
| 20260502184732 | 60 | 10 | 7.0 | 9.0 | 0.00 | 0.00 | 0.00 | 42 | 1018.6 |
| 20260502184227 | 61 | 341 | 3.0 | 5.0 | 0.00 | 0.00 | 0.00 | 41 | 1018.4 |
| 20260502183724 | 60 | 331 | 5.0 | 7.0 | 0.00 | 0.00 | 0.00 | 42 | 1018.5 |
| 20260502183220 | 60 | 351 | 11.0 | 13.0 | 0.00 | 0.00 | 0.00 | 44 | 1018.6 |
| 20260502182716 | 60 | 347 | 5.0 | 8.0 | 0.00 | 0.00 | 0.00 | 44 | 1018.6 |
| 20260502182212 | 60 | 356 | 10.0 | 13.0 | 0.00 | 0.00 | 0.00 | 45 | 1018.4 |
| 20260502181709 | 59 | 334 | 7.0 | 11.0 | 0.00 | 0.00 | 0.00 | 49 | 1018.5 |
| 20260502181208 | 59 | 357 | 12.0 | 14.0 | 0.00 | 0.00 | 0.00 | 48 | 1018.7 |
| 20260502180705 | 58 | 338 | 9.0 | 13.0 | 0.00 | 0.00 | 0.00 | 49 | 1018.6 |
| 20260502180202 | 59 | 354 | 9.0 | 15.0 | 0.00 | 0.00 | 0.00 | 50 | 1018.7 |
| 20260502170126 | 58 | 309 | 11.0 | 13.0 | 0.00 | 0.00 | 0.00 | 51 | 1018.6 |
| 20260502164113 | 59 | 295 | 12.0 | 16.0 | 0.00 | 0.00 | 0.00 | 49 | 1018.6 |
| 20260502163609 | 58 | 328 | 7.0 | 14.0 | 0.00 | 0.00 | 0.00 | 51 | 1018.6 |
| 20260502163105 | 59 | 316 | 9.0 | 13.0 | 0.00 | 0.00 | 0.00 | 51 | 1018.5 |
| 20260502162602 | 59 | 311 | 12.0 | 15.0 | 0.00 | 0.00 | 0.00 | 50 | 1018.5 |
| 20260502162059 | 58 | 312 | 12.0 | 17.0 | 0.00 | 0.00 | 0.00 | 51 | 1018.5 |
| 20260502161556 | 57 | 308 | 13.0 | 17.0 | 0.00 | 0.00 | 0.00 | 52 | 1018.5 |
| 20260502161054 | 57 | 333 | 10.0 | 14.0 | 0.00 | 0.00 | 0.00 | 51 | 1018.6 |
| 20260502160552 | 57 | 314 | 10.0 | 15.0 | 0.00 | 0.00 | 0.00 | 52 | 1018.5 |
| 20260502152005 | 55 | 326 | 10.0 | 16.0 | 0.00 | 0.00 | 0.00 | 55 | 1018.7 |
| 20260502151501 | 55 | 326 | 12.0 | 16.0 | 0.00 | 0.00 | 0.00 | 55 | 1018.8 |
| 20260502150959 | 55 | 335 | 8.0 | 11.0 | 0.00 | 0.00 | 0.00 | 56 | 1018.7 |
| 20260502150456 | 54 | 312 | 12.0 | 17.0 | 0.00 | 0.00 | 0.00 | 55 | 1018.6 |
| 20260502130341 | 46 | 318 | 0.0 | 5.0 | 0.00 | 0.00 | 0.00 | 70 | 1018.3 |
| 20260502123324 | 43 | 323 | 0.0 | 0.0 | 0.00 | 0.00 | 0.00 | 75 | 1017.9 |
| 20260502122821 | 42 | 311 | 3.0 | 5.0 | 0.00 | 0.00 | 0.00 | 76 | 1017.6 |
| 20260502122316 | 41 | 312 | 0.0 | 0.0 | 0.00 | 0.00 | 0.00 | 76 | 1017.6 |
| 20260502121815 | 42 | 327 | 0.0 | 0.0 | 0.00 | 0.00 | 0.00 | 76 | 1017.7 |
| 20260502121312 | 42 | 315 | 0.0 | 0.0 | 0.00 | 0.00 | 0.00 | 75 | 1017.6 |
| 20260502120809 | 41 | 310 | 0.0 | 0.0 | 0.00 | 0.00 | 0.00 | 76 | 1017.4 |
| 20260502120305 | 41 | 318 | 0.0 | 0.0 | 0.00 | 0.00 | 0.00 | 76 | 1017.5 |
| 20260502115803 | 41 | 315 | 0.0 | 0.0 | 0.00 | 0.00 | 0.00 | 76 | 1017.4 |
| 20260502115300 | 41 | 314 | 0.0 | 0.0 | 0.00 | 0.00 | 0.00 | 74 | 1017.6 |
| 20260502114756 | 42 | 333 | 2.0 | 5.0 | 0.00 | 0.00 | 0.00 | 74 | 1017.6 |
| 20260502114253 | 43 | 331 | 3.0 | 5.0 | 0.00 | 0.00 | 0.00 | 71 | 1017.5 |
| 20260502113750 | 42 | 334 | 1.0 | 5.0 | 0.00 | 0.00 | 0.00 | 73 | 1017.3 |
| 20260502113248 | 42 | 289 | 0.0 | 0.0 | 0.00 | 0.00 | 0.00 | 73 | 1017.2 |
| 20260502112746 | 43 | 283 | 2.0 | 2.0 | 0.00 | 0.00 | 0.00 | 71 | 1017.4 |
| 20260502112243 | 44 | 296 | 2.0 | 3.0 | 0.00 | 0.00 | 0.00 | 70 | 1017.5 |
| 20260502111740 | 45 | 291 | 4.0 | 6.0 | 0.00 | 0.00 | 0.00 | 69 | 1017.4 |
| 20260502111238 | 46 | 290 | 4.0 | 6.0 | 0.00 | 0.00 | 0.00 | 66 | 1017.5 |
| 20260502110735 | 46 | 313 | 4.0 | 7.0 | 0.00 | 0.00 | 0.00 | 67 | 1017.4 |
| 20260502110232 | 46 | 326 | 4.0 | 6.0 | 0.00 | 0.00 | 0.00 | 65 | 1017.3 |
| 20260502105731 | 46 | 335 | 4.0 | 5.0 | 0.00 | 0.00 | 0.00 | 66 | 1017.2 |
| 20260502105226 | 45 | 334 | 3.0 | 5.0 | 0.00 | 0.00 | 0.00 | 66 | 1017.4 |
| 20260502104724 | 46 | 333 | 4.0 | 6.0 | 0.00 | 0.00 | 0.00 | 66 | 1017.0 |
| 20260502104222 | 45 | 315 | 5.0 | 6.0 | 0.00 | 0.00 | 0.00 | 66 | 1016.7 |
| 20260502103719 | 44 | 326 | 3.0 | 3.0 | 0.00 | 0.00 | 0.00 | 66 | 1016.6 |
| 20260502103217 | 44 | 338 | 4.0 | 5.0 | 0.00 | 0.00 | 0.00 | 66 | 1016.5 |
| 20260502102713 | 45 | 349 | 3.0 | 5.0 | 0.00 | 0.00 | 0.00 | 65 | 1016.4 |
| 20260502102210 | 46 | 318 | 0.0 | 0.0 | 0.00 | 0.00 | 0.00 | 64 | 1016.3 |
| 20260502101708 | 46 | 325 | 3.0 | 3.0 | 0.00 | 0.00 | 0.00 | 62 | 1016.3 |
| 20260502101206 | 47 | 304 | 0.0 | 0.0 | 0.00 | 0.00 | 0.00 | 63 | 1016.5 |
| 20260502100704 | 46 | 295 | 0.0 | 0.0 | 0.00 | 0.00 | 0.00 | 62 | 1016.5 |
| 20260502100202 | 47 | 278 | 0.0 | 0.0 | 0.00 | 0.00 | 0.00 | 60 | 1016.3 |
| 20260502091136 | 53 | 77 | 5.0 | 7.0 | 0.00 | 0.00 | 0.00 | 47 | 1015.2 |
| 20260502090633 | 51 | 114 | 9.0 | 13.0 | 0.00 | 0.00 | 0.00 | 51 | 1015.2 |
| 20260502090130 | 51 | 59 | 5.0 | 8.0 | 0.00 | 0.00 | 0.00 | 51 | 1015.4 |
| 20260502071528 | 48 | 318 | 4.0 | 5.0 | 0.00 | 0.00 | 0.00 | 52 | 1014.0 |
| 20260502071026 | 48 | 307 | 4.0 | 5.0 | 0.00 | 0.00 | 0.00 | 51 | 1013.9 |
| 20260502070524 | 48 | 315 | 4.0 | 5.0 | 0.00 | 0.00 | 0.00 | 52 | 1013.9 |
| 20260502070022 | 49 | 321 | 3.0 | 3.0 | 0.00 | 0.00 | 0.00 | 50 | 1013.7 |
| 20260502065520 | 49 | 321 | 3.0 | 3.0 | 0.00 | 0.00 | 0.00 | 51 | 1013.6 |
| 20260502065017 | 49 | 313 | 4.0 | 6.0 | 0.00 | 0.00 | 0.00 | 52 | 1013.7 |
| 20260502064516 | 49 | 320 | 4.0 | 5.0 | 0.00 | 0.00 | 0.00 | 50 | 1013.7 |
| 20260502064012 | 49 | 329 | 4.0 | 6.0 | 0.00 | 0.00 | 0.00 | 52 | 1014.0 |
| 20260502063510 | 49 | 313 | 4.0 | 6.0 | 0.00 | 0.00 | 0.00 | 50 | 1014.1 |
| 20260502063008 | 49 | 324 | 4.0 | 6.0 | 0.00 | 0.00 | 0.00 | 52 | 1014.0 |
| 20260502062504 | 49 | 330 | 3.0 | 5.0 | 0.00 | 0.00 | 0.00 | 52 | 1014.1 |
| 20260502062003 | 48 | 333 | 3.0 | 5.0 | 0.00 | 0.00 | 0.00 | 55 | 1014.0 |
| 20260502061500 | 48 | 334 | 3.0 | 5.0 | 0.00 | 0.00 | 0.00 | 55 | 1013.9 |
| 20260502060956 | 48 | 313 | 4.0 | 6.0 | 0.00 | 0.00 | 0.00 | 54 | 1013.9 |
| 20260502060452 | 47 | 317 | 4.0 | 5.0 | 0.00 | 0.00 | 0.00 | 56 | 1014.0 |
| 20260502055949 | 47 | 321 | 3.0 | 5.0 | 0.00 | 0.00 | 0.00 | 57 | 1014.0 |
| 20260502055446 | 47 | 303 | 3.0 | 5.0 | 0.00 | 0.00 | 0.00 | 57 | 1013.7 |
| 20260502054940 | 46 | 317 | 3.0 | 3.0 | 0.00 | 0.00 | 0.00 | 58 | 1013.7 |
| 20260502054438 | 45 | 339 | 3.0 | 5.0 | 0.00 | 0.00 | 0.00 | 60 | 1013.9 |
| 20260502053935 | 46 | 336 | 5.0 | 5.0 | 0.00 | 0.00 | 0.00 | 59 | 1014.0 |
| 20260502053432 | 45 | 326 | 3.0 | 3.0 | 0.00 | 0.00 | 0.00 | 61 | 1013.9 |
| 20260502052930 | 45 | 319 | 4.0 | 5.0 | 0.00 | 0.00 | 0.00 | 63 | 1014.0 |
| 20260502052428 | 45 | 288 | 2.0 | 2.0 | 0.00 | 0.00 | 0.00 | 61 | 1013.9 |
| 20260502051926 | 45 | 326 | 3.0 | 6.0 | 0.00 | 0.00 | 0.00 | 61 | 1014.0 |
| 20260502051424 | 46 | 305 | 0.0 | 0.0 | 0.00 | 0.00 | 0.00 | 61 | 1014.1 |
| 20260502050920 | 47 | 252 | 1.0 | 2.0 | 0.00 | 0.00 | 0.00 | 60 | 1014.0 |
| 20260502050417 | 48 | 302 | 3.0 | 3.0 | 0.00 | 0.00 | 0.00 | 56 | 1013.9 |
| 20260502045914 | 46 | 325 | 4.0 | 5.0 | 0.00 | 0.00 | 0.00 | 59 | 1013.7 |
| 20260502045411 | 46 | 333 | 4.0 | 5.0 | 0.00 | 0.00 | 0.00 | 60 | 1014.0 |
| 20260502044908 | 46 | 334 | 4.0 | 6.0 | 0.00 | 0.00 | 0.00 | 60 | 1014.0 |
| 20260502044404 | 47 | 320 | 5.0 | 6.0 | 0.00 | 0.00 | 0.00 | 59 | 1013.7 |
| 20260502043901 | 47 | 327 | 5.0 | 6.0 | 0.00 | 0.00 | 0.00 | 57 | 1013.5 |
| 20260502043359 | 49 | 328 | 3.0 | 5.0 | 0.00 | 0.00 | 0.00 | 55 | 1013.7 |
| 20260502042858 | 48 | 323 | 4.0 | 5.0 | 0.00 | 0.00 | 0.00 | 57 | 1013.6 |
| 20260502042355 | 47 | 289 | 3.0 | 3.0 | 0.00 | 0.00 | 0.00 | 58 | 1013.6 |
| 20260502041853 | 50 | 321 | 3.0 | 5.0 | 0.00 | 0.00 | 0.00 | 55 | 1013.7 |
| 20260502041350 | 52 | 341 | 3.0 | 3.0 | 0.00 | 0.00 | 0.00 | 45 | 1013.4 |
| 20260502040847 | 50 | 343 | 3.0 | 5.0 | 0.00 | 0.00 | 0.00 | 53 | 1013.6 |
| 20260502040344 | 51 | 278 | 3.0 | 3.0 | 0.00 | 0.00 | 0.00 | 53 | 1013.6 |
| 20260502035840 | 51 | 296 | 2.0 | 2.0 | 0.00 | 0.00 | 0.00 | 52 | 1013.6 |
| 20260502035337 | 52 | 340 | 3.0 | 3.0 | 0.00 | 0.00 | 0.00 | 51 | 1013.4 |
| 20260502034834 | 53 | 312 | 3.0 | 3.0 | 0.00 | 0.00 | 0.00 | 52 | 1013.5 |
| 20260502034332 | 53 | 261 | 1.0 | 2.0 | 0.00 | 0.00 | 0.00 | 48 | 1013.4 |
| 20260502033830 | 53 | 152 | 1.0 | 1.0 | 0.00 | 0.00 | 0.00 | 47 | 1013.4 |
| 20260502033328 | 52 | 232 | 1.0 | 2.0 | 0.00 | 0.00 | 0.00 | 46 | 1013.1 |
| 20260502032824 | 55 | 196 | 1.0 | 2.0 | 0.00 | 0.00 | 0.00 | 47 | 1013.4 |
| 20260502032320 | 61 | 101 | 0.0 | 2.0 | 0.00 | 0.00 | 0.00 | 31 | 1013.2 |
| 20260502031818 | 61 | 69 | 2.0 | 2.0 | 0.00 | 0.00 | 0.00 | 32 | 1013.0 |
| 20260502031316 | 62 | 79 | 2.0 | 3.0 | 0.00 | 0.00 | 0.00 | 31 | 1013.2 |
| 20260502030815 | 62 | 59 | 3.0 | 5.0 | 0.00 | 0.00 | 0.00 | 31 | 1013.0 |
| 20260502030312 | 62 | 66 | 3.0 | 3.0 | 0.00 | 0.00 | 0.00 | 31 | 1012.9 |
| 20260502025809 | 61 | 69 | 1.0 | 3.0 | 0.00 | 0.00 | 0.00 | 33 | 1012.8 |
| 20260502025307 | 61 | 17 | 4.0 | 7.0 | 0.00 | 0.00 | 0.00 | 36 | 1012.5 |
| 20260502024805 | 61 | 19 | 5.0 | 7.0 | 0.00 | 0.00 | 0.00 | 35 | 1012.9 |
| 20260502024302 | 62 | 53 | 4.0 | 6.0 | 0.00 | 0.00 | 0.00 | 33 | 1012.8 |
| 20260502023800 | 62 | 11 | 4.0 | 6.0 | 0.00 | 0.00 | 0.00 | 33 | 1012.9 |
| 20260502023257 | 62 | 348 | 5.0 | 6.0 | 0.00 | 0.00 | 0.00 | 35 | 1012.9 |
| 20260502022755 | 61 | 359 | 4.0 | 5.0 | 0.00 | 0.00 | 0.00 | 37 | 1012.4 |
| 20260502022251 | 63 | 21 | 4.0 | 5.0 | 0.00 | 0.00 | 0.00 | 34 | 1012.5 |
| 20260502021748 | 65 | 70 | 1.0 | 2.0 | 0.00 | 0.00 | 0.00 | 30 | 1012.8 |
| 20260502021245 | 65 | 55 | 2.0 | 3.0 | 0.00 | 0.00 | 0.00 | 29 | 1012.6 |
| 20260502020743 | 66 | 25 | 3.0 | 3.0 | 0.00 | 0.00 | 0.00 | 29 | 1012.6 |
| 20260502020240 | 67 | 6 | 4.0 | 5.0 | 0.00 | 0.00 | 0.00 | 27 | 1012.4 |
| 20260502015738 | 66 | 18 | 3.0 | 3.0 | 0.00 | 0.00 | 0.00 | 28 | 1012.4 |
| 20260502015233 | 67 | 18 | 3.0 | 3.0 | 0.00 | 0.00 | 0.00 | 26 | 1012.3 |
| 20260502014731 | 68 | 47 | 3.0 | 5.0 | 0.00 | 0.00 | 0.00 | 25 | 1012.4 |
| 20260502014228 | 67 | 27 | 4.0 | 5.0 | 0.00 | 0.00 | 0.00 | 28 | 1012.4 |
| 20260502013724 | 67 | 24 | 4.0 | 5.0 | 0.00 | 0.00 | 0.00 | 29 | 1012.8 |
| 20260502013220 | 68 | 35 | 2.0 | 3.0 | 0.00 | 0.00 | 0.00 | 28 | 1012.5 |
| 20260502012717 | 68 | 19 | 4.0 | 5.0 | 0.00 | 0.00 | 0.00 | 28 | 1012.4 |
| 20260502012215 | 68 | 23 | 4.0 | 5.0 | 0.00 | 0.00 | 0.00 | 28 | 1012.6 |
| 20260502011711 | 69 | 19 | 3.0 | 5.0 | 0.00 | 0.00 | 0.00 | 27 | 1012.5 |
| 20260502011207 | 69 | 356 | 3.0 | 5.0 | 0.00 | 0.00 | 0.00 | 29 | 1012.6 |
| 20260502010706 | 69 | 27 | 5.0 | 6.0 | 0.00 | 0.00 | 0.00 | 26 | 1012.5 |
| 20260502010201 | 68 | 358 | 3.0 | 5.0 | 0.00 | 0.00 | 0.00 | 27 | 1012.6 |
| 20260502005659 | 69 | 318 | 4.0 | 5.0 | 0.00 | 0.00 | 0.00 | 26 | 1012.9 |
| 20260502005156 | 70 | 315 | 5.0 | 8.0 | 0.00 | 0.00 | 0.00 | 23 | 1012.9 |
| 20260502004652 | 70 | 305 | 7.0 | 8.0 | 0.00 | 0.00 | 0.00 | 24 | 1012.8 |
| 20260502004149 | 71 | 312 | 8.0 | 9.0 | 0.00 | 0.00 | 0.00 | 23 | 1012.9 |